| time (UTC) | temp F | wind direction | speed MPH | gust MPH | rain 1hr in | rain 24hr in | rain mn in | humidity % | barometer mb |
| 20260503205030 | 72 | 143 | 5.0 | 10.0 | 0.00 | 0.00 | 0.00 | 15 | 1013.0 |
| 20260503204529 | 72 | 344 | 2.0 | 6.0 | 0.00 | 0.00 | 0.00 | 14 | 1013.0 |
| 20260503204030 | 73 | 152 | 8.0 | 9.0 | 0.00 | 0.00 | 0.00 | 14 | 1013.0 |
| 20260503203529 | 73 | 165 | 6.0 | 10.0 | 0.00 | 0.00 | 0.00 | 13 | 1013.0 |
| 20260503203030 | 73 | 223 | 2.0 | 6.0 | 0.00 | 0.00 | 0.00 | 16 | 1013.0 |
| 20260503202529 | 72 | 323 | 1.0 | 7.0 | 0.00 | 0.00 | 0.00 | 16 | 1013.0 |
| 20260503202030 | 73 | 160 | 10.0 | 15.0 | 0.00 | 0.00 | 0.00 | 15 | 1013.0 |
| 20260503201529 | 73 | 152 | 12.0 | 17.0 | 0.00 | 0.00 | 0.00 | 15 | 1013.0 |
| 20260503201030 | 72 | 300 | 1.0 | 8.0 | 0.00 | 0.00 | 0.00 | 19 | 1013.0 |
| 20260503200529 | 73 | 165 | 10.0 | 15.0 | 0.00 | 0.00 | 0.00 | 17 | 1013.0 |
| 20260503200029 | 73 | 165 | 6.0 | 9.0 | 0.00 | 0.00 | 0.00 | 19 | 1013.0 |
| 20260503195530 | 73 | 109 | 3.0 | 8.0 | 0.00 | 0.00 | 0.00 | 19 | 1014.0 |
| 20260503195029 | 73 | 154 | 2.0 | 10.0 | 0.00 | 0.00 | 0.00 | 19 | 1014.0 |
| 20260503194530 | 72 | 143 | 6.0 | 13.0 | 0.00 | 0.00 | 0.00 | 17 | 1014.0 |
| 20260503194029 | 72 | 178 | 5.0 | 9.0 | 0.00 | 0.00 | 0.00 | 20 | 1014.0 |
| 20260503193529 | 72 | 210 | 4.0 | 9.0 | 0.00 | 0.00 | 0.00 | 17 | 1014.0 |
| 20260503193029 | 73 | 162 | 4.0 | 9.0 | 0.00 | 0.00 | 0.00 | 17 | 1014.0 |
| 20260503192530 | 73 | 137 | 4.0 | 6.0 | 0.00 | 0.00 | 0.00 | 22 | 1014.0 |
| 20260503192030 | 72 | 151 | 6.0 | 11.0 | 0.00 | 0.00 | 0.00 | 18 | 1014.0 |
| 20260503191529 | 72 | 152 | 5.0 | 13.0 | 0.00 | 0.00 | 0.00 | 20 | 1014.0 |
| 20260503191030 | 71 | 292 | 3.0 | 6.0 | 0.00 | 0.00 | 0.00 | 19 | 1014.0 |
| 20260503190529 | 71 | 150 | 4.0 | 9.0 | 0.00 | 0.00 | 0.00 | 20 | 1014.0 |
| 20260503190029 | 71 | 155 | 7.0 | 10.0 | 0.00 | 0.00 | 0.00 | 18 | 1014.0 |
| 20260503185529 | 71 | 147 | 9.0 | 15.0 | 0.00 | 0.00 | 0.00 | 19 | 1014.0 |
| 20260503185029 | 71 | 156 | 6.0 | 11.0 | 0.00 | 0.00 | 0.00 | 22 | 1014.0 |
| 20260503184529 | 70 | 337 | 2.0 | 7.0 | 0.00 | 0.00 | 0.00 | 20 | 1015.0 |
| 20260503184031 | 70 | 313 | 4.0 | 9.0 | 0.00 | 0.00 | 0.00 | 21 | 1015.0 |
| 20260503183530 | 70 | 154 | 8.0 | 15.0 | 0.00 | 0.00 | 0.00 | 19 | 1015.0 |
| 20260503183030 | 71 | 170 | 2.0 | 7.0 | 0.00 | 0.00 | 0.00 | 23 | 1015.0 |
| 20260503182529 | 71 | 120 | 0.0 | 4.0 | 0.00 | 0.00 | 0.00 | 20 | 1015.0 |
| 20260503182030 | 70 | 233 | 0.0 | 2.0 | 0.00 | 0.00 | 0.00 | 23 | 1015.0 |
| 20260503181530 | 70 | 0 | 0.0 | 0.0 | 0.00 | 0.00 | 0.00 | 23 | 1015.0 |
| 20260503181030 | 69 | 151 | 1.0 | 4.0 | 0.00 | 0.00 | 0.00 | 22 | 1015.0 |
| 20260503180530 | 69 | 0 | 0.0 | 0.0 | 0.00 | 0.00 | 0.00 | 23 | 1015.0 |
| 20260503180030 | 69 | 214 | 1.0 | 4.0 | 0.00 | 0.00 | 0.00 | 27 | 1015.0 |
| 20260503175530 | 69 | 170 | 7.0 | 9.0 | 0.00 | 0.00 | 0.00 | 23 | 1015.0 |
| 20260503175029 | 69 | 177 | 3.0 | 5.0 | 0.00 | 0.00 | 0.00 | 24 | 1015.0 |
| 20260503174529 | 69 | 312 | 3.0 | 4.0 | 0.00 | 0.00 | 0.00 | 27 | 1015.0 |
| 20260503174030 | 69 | 150 | 5.0 | 7.0 | 0.00 | 0.00 | 0.00 | 24 | 1015.0 |
| 20260503173530 | 69 | 175 | 3.0 | 4.0 | 0.00 | 0.00 | 0.00 | 25 | 1015.0 |
| 20260503173030 | 68 | 0 | 4.0 | 7.0 | 0.00 | 0.00 | 0.00 | 24 | 1015.0 |
| 20260503172530 | 67 | 134 | 4.0 | 7.0 | 0.00 | 0.00 | 0.00 | 24 | 1015.0 |
| 20260503172030 | 67 | 31 | 2.0 | 5.0 | 0.00 | 0.00 | 0.00 | 25 | 1015.0 |
| 20260503171530 | 67 | 121 | 6.0 | 8.0 | 0.00 | 0.00 | 0.00 | 28 | 1016.0 |
| 20260503171030 | 67 | 163 | 6.0 | 8.0 | 0.00 | 0.00 | 0.00 | 26 | 1016.0 |
| 20260503170529 | 67 | 26 | 4.0 | 6.0 | 0.00 | 0.00 | 0.00 | 27 | 1016.0 |
| 20260503150529 | 59 | 103 | 6.0 | 7.0 | 0.00 | 0.00 | 0.00 | 34 | 1016.0 |
| 20260503131030 | 49 | 0 | 0.0 | 0.0 | 0.00 | 0.00 | 0.00 | 52 | 1016.0 |
| 20260503130529 | 49 | 1 | 2.0 | 2.0 | 0.00 | 0.00 | 0.00 | 49 | 1015.0 |
| 20260503110530 | 52 | 87 | 5.0 | 6.0 | 0.00 | 0.00 | 0.00 | 37 | 1016.0 |
| 20260503081532 | 52 | 103 | 3.0 | 3.0 | 0.00 | 0.00 | 0.00 | 35 | 1016.0 |
| 20260503081029 | 52 | 110 | 4.0 | 4.0 | 0.00 | 0.00 | 0.00 | 37 | 1016.0 |
| 20260503080530 | 52 | 71 | 4.0 | 4.0 | 0.00 | 0.00 | 0.00 | 39 | 1016.0 |
| 20260503072529 | 53 | 103 | 5.0 | 5.0 | 0.00 | 0.00 | 0.00 | 35 | 1016.0 |
| 20260503072031 | 53 | 96 | 5.0 | 5.0 | 0.00 | 0.00 | 0.00 | 37 | 1016.0 |
| 20260503071529 | 53 | 88 | 5.0 | 5.0 | 0.00 | 0.00 | 0.00 | 36 | 1016.0 |
| 20260503071030 | 53 | 83 | 5.0 | 5.0 | 0.00 | 0.00 | 0.00 | 36 | 1016.0 |
| 20260503070529 | 53 | 100 | 5.0 | 5.0 | 0.00 | 0.00 | 0.00 | 35 | 1016.0 |
| 20260503055030 | 56 | 13 | 3.0 | 4.0 | 0.00 | 0.00 | 0.00 | 29 | 1016.0 |
| 20260503054529 | 57 | 25 | 2.0 | 3.0 | 0.00 | 0.00 | 0.00 | 29 | 1016.0 |
| 20260503054032 | 57 | 1 | 2.0 | 4.0 | 0.00 | 0.00 | 0.00 | 29 | 1016.0 |
| 20260503053530 | 58 | 358 | 4.0 | 6.0 | 0.00 | 0.00 | 0.00 | 28 | 1016.0 |
| 20260503053030 | 58 | 65 | 5.0 | 8.0 | 0.00 | 0.00 | 0.00 | 27 | 1016.0 |
| 20260503052530 | 58 | 92 | 5.0 | 8.0 | 0.00 | 0.00 | 0.00 | 26 | 1016.0 |
| 20260503052029 | 58 | 96 | 6.0 | 12.0 | 0.00 | 0.00 | 0.00 | 26 | 1015.0 |
| 20260503051531 | 58 | 122 | 5.0 | 7.0 | 0.00 | 0.00 | 0.00 | 26 | 1015.0 |
| 20260503051030 | 58 | 5 | 0.0 | 0.0 | 0.00 | 0.00 | 0.00 | 31 | 1015.0 |
| 20260503050530 | 58 | 0 | 0.0 | 0.0 | 0.00 | 0.00 | 0.00 | 30 | 1015.0 |
| 20260503050029 | 59 | 345 | 0.0 | 1.0 | 0.00 | 0.00 | 0.00 | 31 | 1015.0 |
| 20260503045530 | 60 | 0 | 0.0 | 0.0 | 0.00 | 0.00 | 0.00 | 29 | 1015.0 |
| 20260503045030 | 60 | 0 | 0.0 | 0.0 | 0.00 | 0.00 | 0.00 | 28 | 1015.0 |
| 20260503044529 | 61 | 86 | 3.0 | 3.0 | 0.00 | 0.00 | 0.00 | 26 | 1015.0 |
| 20260503044030 | 61 | 86 | 3.0 | 4.0 | 0.00 | 0.00 | 0.00 | 26 | 1016.0 |
| 20260503043530 | 62 | 108 | 5.0 | 6.0 | 0.00 | 0.00 | 0.00 | 26 | 1015.0 |
| 20260503043030 | 63 | 38 | 3.0 | 4.0 | 0.00 | 0.00 | 0.00 | 25 | 1016.0 |
| 20260503042529 | 64 | 54 | 1.0 | 4.0 | 0.00 | 0.00 | 0.00 | 23 | 1015.0 |
| 20260503041549 | 64 | 328 | 5.0 | 9.0 | 0.00 | 0.00 | 0.00 | 22 | 1015.0 |
| 20260503041030 | 64 | 340 | 12.0 | 16.0 | 0.00 | 0.00 | 0.00 | 22 | 1015.0 |
| 20260503040529 | 64 | 316 | 0.0 | 4.0 | 0.00 | 0.00 | 0.00 | 23 | 1015.0 |
| 20260503040029 | 64 | 313 | 7.0 | 10.0 | 0.00 | 0.00 | 0.00 | 22 | 1015.0 |
| 20260503035529 | 64 | 324 | 8.0 | 13.0 | 0.00 | 0.00 | 0.00 | 22 | 1015.0 |
| 20260503035029 | 64 | 327 | 8.0 | 11.0 | 0.00 | 0.00 | 0.00 | 22 | 1015.0 |
| 20260503034530 | 64 | 323 | 11.0 | 16.0 | 0.00 | 0.00 | 0.00 | 22 | 1015.0 |
| 20260503034030 | 64 | 340 | 9.0 | 13.0 | 0.00 | 0.00 | 0.00 | 22 | 1015.0 |
| 20260503033529 | 65 | 330 | 6.0 | 16.0 | 0.00 | 0.00 | 0.00 | 23 | 1015.0 |
| 20260503033030 | 65 | 329 | 11.0 | 17.0 | 0.00 | 0.00 | 0.00 | 22 | 1015.0 |
| 20260503032529 | 65 | 325 | 12.0 | 19.0 | 0.00 | 0.00 | 0.00 | 22 | 1015.0 |
| 20260503032029 | 65 | 326 | 12.0 | 17.0 | 0.00 | 0.00 | 0.00 | 22 | 1015.0 |
| 20260503031529 | 65 | 324 | 9.0 | 15.0 | 0.00 | 0.00 | 0.00 | 22 | 1015.0 |
| 20260503031030 | 65 | 334 | 12.0 | 17.0 | 0.00 | 0.00 | 0.00 | 22 | 1015.0 |
| 20260503030531 | 65 | 326 | 11.0 | 18.0 | 0.00 | 0.00 | 0.00 | 22 | 1015.0 |
| 20260503030029 | 65 | 324 | 8.0 | 16.0 | 0.00 | 0.00 | 0.00 | 22 | 1015.0 |
| 20260503025529 | 65 | 330 | 13.0 | 16.0 | 0.00 | 0.00 | 0.00 | 22 | 1015.0 |
| 20260503025030 | 65 | 331 | 10.0 | 16.0 | 0.00 | 0.00 | 0.00 | 22 | 1015.0 |
| 20260503024531 | 65 | 329 | 9.0 | 14.0 | 0.00 | 0.00 | 0.00 | 22 | 1015.0 |
| 20260503024029 | 65 | 326 | 10.0 | 13.0 | 0.00 | 0.00 | 0.00 | 22 | 1015.0 |
| 20260503023529 | 66 | 326 | 8.0 | 11.0 | 0.00 | 0.00 | 0.00 | 22 | 1015.0 |
| 20260503023030 | 66 | 329 | 9.0 | 13.0 | 0.00 | 0.00 | 0.00 | 21 | 1015.0 |
| 20260503022530 | 66 | 343 | 13.0 | 18.0 | 0.00 | 0.00 | 0.00 | 21 | 1015.0 |
| 20260503022030 | 66 | 336 | 15.0 | 22.0 | 0.00 | 0.00 | 0.00 | 21 | 1015.0 |
| 20260503021529 | 66 | 337 | 12.0 | 17.0 | 0.00 | 0.00 | 0.00 | 21 | 1015.0 |
| 20260503021030 | 67 | 333 | 7.0 | 11.0 | 0.00 | 0.00 | 0.00 | 21 | 1015.0 |
| 20260503020530 | 67 | 338 | 10.0 | 14.0 | 0.00 | 0.00 | 0.00 | 22 | 1015.0 |
| 20260503020030 | 67 | 329 | 6.0 | 11.0 | 0.00 | 0.00 | 0.00 | 21 | 1015.0 |
| 20260503015530 | 68 | 334 | 7.0 | 11.0 | 0.00 | 0.00 | 0.00 | 22 | 1015.0 |
| 20260503015030 | 68 | 315 | 9.0 | 13.0 | 0.00 | 0.00 | 0.00 | 19 | 1015.0 |
| 20260503014529 | 69 | 1 | 6.0 | 8.0 | 0.00 | 0.00 | 0.00 | 18 | 1015.0 |
| 20260503014030 | 70 | 351 | 4.0 | 7.0 | 0.00 | 0.00 | 0.00 | 17 | 1015.0 |
| 20260503013529 | 70 | 348 | 3.0 | 6.0 | 0.00 | 0.00 | 0.00 | 16 | 1015.0 |
| 20260503013029 | 70 | 342 | 5.0 | 7.0 | 0.00 | 0.00 | 0.00 | 16 | 1015.0 |
| 20260503012530 | 70 | 349 | 3.0 | 4.0 | 0.00 | 0.00 | 0.00 | 18 | 1015.0 |
| 20260503012029 | 70 | 345 | 5.0 | 5.0 | 0.00 | 0.00 | 0.00 | 15 | 1015.0 |
| 20260503011531 | 70 | 6 | 2.0 | 5.0 | 0.00 | 0.00 | 0.00 | 12 | 1015.0 |
| 20260503011030 | 70 | 4 | 0.0 | 2.0 | 0.00 | 0.00 | 0.00 | 11 | 1015.0 |
| 20260503010530 | 71 | 171 | 2.0 | 5.0 | 0.00 | 0.00 | 0.00 | 11 | 1015.0 |
| 20260503010029 | 71 | 357 | 4.0 | 7.0 | 0.00 | 0.00 | 0.00 | 10 | 1015.0 |
| 20260503005529 | 71 | 11 | 3.0 | 6.0 | 0.00 | 0.00 | 0.00 | 11 | 1015.0 |
| 20260503005031 | 71 | 14 | 5.0 | 7.0 | 0.00 | 0.00 | 0.00 | 10 | 1015.0 |
| 20260503004529 | 71 | 83 | 4.0 | 6.0 | 0.00 | 0.00 | 0.00 | 10 | 1015.0 |
| 20260503004029 | 71 | 21 | 3.0 | 6.0 | 0.00 | 0.00 | 0.00 | 11 | 1015.0 |
| 20260503003530 | 71 | 25 | 5.0 | 9.0 | 0.00 | 0.00 | 0.00 | 10 | 1015.0 |
| 20260503003029 | 71 | 118 | 4.0 | 9.0 | 0.00 | 0.00 | 0.00 | 11 | 1015.0 |
| 20260503002529 | 71 | 152 | 5.0 | 10.0 | 0.00 | 0.00 | 0.00 | 10 | 1015.0 |
| 20260503002029 | 71 | 34 | 2.0 | 5.0 | 0.00 | 0.00 | 0.00 | 11 | 1015.0 |
| 20260503001530 | 71 | 89 | 5.0 | 12.0 | 0.00 | 0.00 | 0.00 | 10 | 1015.0 |
| 20260503001029 | 71 | 146 | 6.0 | 11.0 | 0.00 | 0.00 | 0.00 | 11 | 1015.0 |
| 20260503000529 | 71 | 216 | 2.0 | 7.0 | 0.00 | 0.00 | 0.00 | 12 | 1015.0 |
| 20260503000029 | 71 | 88 | 4.0 | 7.0 | 0.00 | 0.00 | 0.00 | 11 | 1015.0 |
| 20260502235529 | 71 | 150 | 6.0 | 9.0 | 0.00 | 0.00 | 0.00 | 10 | 1015.0 |
| 20260502235029 | 71 | 111 | 3.0 | 7.0 | 0.00 | 0.00 | 0.00 | 11 | 1015.0 |
| 20260502234529 | 71 | 151 | 9.0 | 12.0 | 0.00 | 0.00 | 0.00 | 10 | 1015.0 |
| 20260502234029 | 71 | 157 | 4.0 | 8.0 | 0.00 | 0.00 | 0.00 | 12 | 1015.0 |
| 20260502233529 | 71 | 164 | 4.0 | 9.0 | 0.00 | 0.00 | 0.00 | 11 | 1015.0 |
| 20260502233029 | 71 | 149 | 8.0 | 12.0 | 0.00 | 0.00 | 0.00 | 10 | 1015.0 |
| 20260502232529 | 71 | 122 | 4.0 | 10.0 | 0.00 | 0.00 | 0.00 | 13 | 1015.0 |
| 20260502232029 | 71 | 8 | 3.0 | 6.0 | 0.00 | 0.00 | 0.00 | 11 | 1015.0 |
| 20260502231529 | 71 | 114 | 7.0 | 12.0 | 0.00 | 0.00 | 0.00 | 12 | 1015.0 |
| 20260502231030 | 71 | 64 | 4.0 | 8.0 | 0.00 | 0.00 | 0.00 | 11 | 1015.0 |
| 20260502230529 | 71 | 109 | 5.0 | 9.0 | 0.00 | 0.00 | 0.00 | 12 | 1015.0 |
| 20260502230029 | 71 | 156 | 4.0 | 12.0 | 0.00 | 0.00 | 0.00 | 11 | 1015.0 |
| 20260502225529 | 70 | 45 | 4.0 | 8.0 | 0.00 | 0.00 | 0.00 | 12 | 1015.0 |
| 20260502225030 | 70 | 300 | 1.0 | 4.0 | 0.00 | 0.00 | 0.00 | 12 | 1016.0 |
| 20260502224530 | 71 | 84 | 6.0 | 11.0 | 0.00 | 0.00 | 0.00 | 14 | 1016.0 |
| 20260502224030 | 70 | 53 | 6.0 | 11.0 | 0.00 | 0.00 | 0.00 | 12 | 1016.0 |
| 20260502223530 | 70 | 32 | 3.0 | 7.0 | 0.00 | 0.00 | 0.00 | 14 | 1016.0 |
| 20260502223030 | 70 | 47 | 8.0 | 14.0 | 0.00 | 0.00 | 0.00 | 11 | 1016.0 |
| 20260502222529 | 70 | 103 | 3.0 | 6.0 | 0.00 | 0.00 | 0.00 | 12 | 1016.0 |
| 20260502222029 | 70 | 109 | 5.0 | 12.0 | 0.00 | 0.00 | 0.00 | 14 | 1016.0 |
| 20260502221529 | 70 | 66 | 7.0 | 11.0 | 0.00 | 0.00 | 0.00 | 14 | 1016.0 |
| 20260502221029 | 70 | 86 | 11.0 | 17.0 | 0.00 | 0.00 | 0.00 | 13 | 1016.0 |
| 20260502220529 | 69 | 4 | 4.0 | 6.0 | 0.00 | 0.00 | 0.00 | 14 | 1016.0 |
| 20260502220029 | 69 | 130 | 3.0 | 8.0 | 0.00 | 0.00 | 0.00 | 15 | 1016.0 |
| 20260502215529 | 70 | 149 | 7.0 | 13.0 | 0.00 | 0.00 | 0.00 | 13 | 1017.0 |
| 20260502215030 | 70 | 111 | 7.0 | 11.0 | 0.00 | 0.00 | 0.00 | 15 | 1017.0 |
| 20260502214529 | 70 | 352 | 4.0 | 8.0 | 0.00 | 0.00 | 0.00 | 13 | 1017.0 |
| 20260502214029 | 70 | 4 | 2.0 | 6.0 | 0.00 | 0.00 | 0.00 | 13 | 1017.0 |
| 20260502213529 | 71 | 115 | 7.0 | 13.0 | 0.00 | 0.00 | 0.00 | 14 | 1017.0 |
| 20260502213029 | 71 | 329 | 7.0 | 10.0 | 0.00 | 0.00 | 0.00 | 12 | 1017.0 |
| 20260502212530 | 71 | 231 | 2.0 | 5.0 | 0.00 | 0.00 | 0.00 | 17 | 1017.0 |
| 20260502212030 | 70 | 154 | 6.0 | 9.0 | 0.00 | 0.00 | 0.00 | 15 | 1017.0 |
| 20260502211529 | 69 | 281 | 1.0 | 4.0 | 0.00 | 0.00 | 0.00 | 16 | 1017.0 |
| 20260502211029 | 69 | 153 | 10.0 | 16.0 | 0.00 | 0.00 | 0.00 | 15 | 1017.0 |
| 20260502210532 | 69 | 149 | 9.0 | 16.0 | 0.00 | 0.00 | 0.00 | 16 | 1017.0 |
| 20260502210030 | 69 | 131 | 7.0 | 12.0 | 0.00 | 0.00 | 0.00 | 16 | 1017.0 |
| 20260502205530 | 69 | 164 | 4.0 | 9.0 | 0.00 | 0.00 | 0.00 | 17 | 1017.0 |